Location: Newark
(7.0858°N, 171.3717°E)
Time: 13:12:20
(UTC+00:00)

Vanguard 1 Rocket - Pass Details

Date: 04 December 2020
Orbit: 655 x 4222 km, 34.3° (Epoch: 23 January)

Event Time Altitude Azimuth Distance (km) Brightness Sun altitude
Rises 10:22:48 0° 241° (WSW) 6,026 12.1 -56.9°
Reaches altitude 10° 10:26:04 10° 243° (WSW) 5,385 11.7 -57.6°
Enters shadow 10:38:54 59° 267° (W) 3,885 10.3 -60.3°
